Regional Weather Roundup
Issued by NWS

Home | Current Version | Previous Version | Text Only | Print | Product List | Glossary On
Versions: 1 2 3 4 5 6 7 8 9 10 11 12 13 14 15 16 17 18 19 20 21 22 23 24 25 26 27 28
000
ASUS45 KREV 160210
RWRNV
NEVADA REGIONAL WEATHER ROUNDUP
NATIONAL WEATHER SERVICE RENO NV
600 PM PST FRI DEC 15 2017

NOTE: "FAIR" INDICATES FEW OR NO CLOUDS BELOW 12,000 FEET WITH NO
SIGNIFICANT WEATHER AND/OR OBSTRUCTIONS TO VISIBILITY.

NVZ001-003-004-160300-
WESTERN NEVADA

CITY           SKY/WX    TMP DP  RH WIND       PRES   REMARKS
RENO           CLOUDY    38  23  55 CALM      30.06F
CARSON CITY    FAIR      41  18  38 SE7       30.07F
MINDEN         FAIR      32  18  55 E7        30.06F
SLIDE MTN        N/A     36  12  38 SW28        N/A
PYRAMID LAKE     N/A     39 N/A N/A W3          N/A
FALLON         CLOUDY    37  16  42 N3        30.07S
LOVELOCK       CLOUDY    34  18  52 S3        30.07S
HAWTHORNE      CLEAR     39  19  45 W5        30.06R
$$

NVZ002-CAZ072-073-160300-
NORTHERN AND CENTRAL SIERRA

CITY           SKY/WX    TMP DP  RH WIND       PRES   REMARKS
S. LAKE TAHOE  CLOUDY    45  14  28 SW6       30.11F
TRUCKEE        CLOUDY    39  18  41 CALM      30.13S
SQUAW VLY 8000   N/A     39   9  28 SW13        N/A
BLUE CANYON    CLOUDY    49  19  30 SE6       30.13F
MAMMOTH LAKES  FAIR      52  -7   9 W18G25    30.14S
$$

NVZ030-031-036-160300-
NORTHERN NEVADA

CITY           SKY/WX    TMP DP  RH WIND       PRES   REMARKS
ELKO           CLOUDY    30  24  78 NE3       30.02F
WINNEMUCCA     CLOUDY    36  21  54 CALM      30.05F
WENDOVER       CLOUDY    28  22  78 SE5       30.06F
$$

NVZ035-037-160300-
CENTRAL NEVADA

CITY           SKY/WX    TMP DP  RH WIND       PRES   REMARKS
ELY            CLOUDY    35   1  23 E5        30.04F
EUREKA           N/A     36  16  44 NW3       30.04R
$$

NVZ013-014-160300-
SOUTH CENTRAL NEVADA

CITY           SKY/WX    TMP DP  RH WIND       PRES   REMARKS
TONOPAH        CLOUDY    39   5  24 NW6       30.05F
$$

NVZ017-020-022-160300-
SOUTHERN NEVADA

CITY           SKY/WX    TMP DP  RH WIND       PRES   REMARKS
LAS VEGAS      PTCLDY    55  16  21 CALM      30.04F
N. LAS VEGAS   PTCLDY    53  16  23 CALM      30.04F
NELLIS AFB     PTCLDY    47  12  24 NE6       30.04F
HENDERSON      PTCLDY    47  17  30 S6        30.06F
MERCURY        MOCLDY    48  11  22 E9        30.02F
$$




USA.gov is the U.S. government's official web portal to all federal, state and local government web resources and services.